Retour au catalogue

YAOGAN-30 J

ActifMilitaireVLEO
NORAD 43083·PAYLOAD·🇨🇳 China

Lancé Dec 25, 2017 depuis Xichang Satellite Launch Center

Loading…

Prochains Passages (prochaines 24 heures)

TLE

FraisSource: Space-Track

Époque: Sep 14, 2026, 14:44 UTC

1 43083U 17085C   26257.61443013  .00001994  00000-0  14720-3 0  9993
2 43083  34.9963 325.3410 0004967 204.7641 155.2830 15.03027616476217

Suivez YAOGAN-30 J en temps réel avec AllMySat

Download on the App Store